Regional Weather Roundup
Issued by NWS

Home | Current Version | Previous Version | Graphics & Text | Print | Product List | Glossary Off
Versions: 1 2 3 4 5 6 7 8 9 10 11 12 13 14 15 16 17 18 19 20 21 22 23 24 25 26 27 28 29 30 31 32 33 34 35 36 37 38 39 40 41 42 43 44 45 46 47 48 49 50

000
ASUS43 KMKX 230900
RWRWI

WISCONSIN REGIONAL WEATHER ROUNDUP
NATIONAL WEATHER SERVICE MILWAUKEE/SULLIVAN WI
400 AM CDT SAT AUG 23 2014

NOTE: "FAIR" INDICATES FEW OR NO CLOUDS BELOW 12,000 FEET WITH NO
SIGNIFICANT WEATHER AND/OR OBSTRUCTIONS TO VISIBILITY.

WIZ001-002-006>008-014>016-023>028-231000-
NORTHWEST WISCONSIN

CITY           SKY/WX    TMP DP  RH WIND       PRES   REMARKS
SUPERIOR ARPT  PTCLDY    60  60  99 NE3       30.06R
ASHLAND        CLOUDY    62  60  93 CALM      30.05S
HAYWARD        CLOUDY    64  64 100 N3        30.04S
SIREN          CLOUDY    64  64  97 NE5       30.03S
RICE LAKE      CLOUDY    66  64  94 CALM      30.03F
LADYSMITH      CLOUDY    66  65  96 N5        30.05R FOG
EAU CLAIRE     NOT AVBL
MENOMONIE      PTSUNNY   69  67  92 N6        29.99F
NEW RICHMOND   CLOUDY    68  67  98 E3        30.01F FOG
OSCEOLA        CLOUDY    69  69 100 NE6       30.03F
$$

WIZ003>005-009-010-017-018-231000-
NORTH CENTRAL WISCONSIN

CITY           SKY/WX    TMP DP  RH WIND       PRES   REMARKS
WOODRUFF       FOG       67  65  92 CALM      30.04S VSB 3/4
RHINELANDER    FOG       68  67  96 CALM      30.05R VSB 1/2
EAGLE RIVER    FOG       68  68 100 CALM      30.03S VSB 1/2
LAND O LAKES   FOG       67  67 100 N3        30.05F VSB 1
PHILLIPS       FOG       64  64 100 N5        30.03S VSB 3/4
TOMAHAWK       FOG       67  66  96 CALM      30.04S VSB 1/2
MEDFORD        FOG       68  68 100 NE3       30.03S VSB 1/2
MERRILL        FOG       70  70 100 CALM      30.02S VSB 3/4
$$

WIZ029-030-035-036-043>047-231000-
CENTRAL WISCONSIN

CITY           SKY/WX    TMP DP  RH WIND       PRES   REMARKS
WAUSAU         CLOUDY    70  69  97 SE6       30.00S FOG
MOSINEE        CLOUDY    68  68 100 E3        30.03R FOG
MARSHFIELD     CLOUDY    73  71  93 E5        30.00S FOG
STEVENS POINT  CLOUDY    68  68  98 E3        30.01S FOG
WAUPACA        CLOUDY    72  70  95 NE3       30.00R FOG
WAUTOMA        NOT AVBL
WISC RAPIDS    CLOUDY    72  70  93 E5        30.00S FOG
CAMP DOUGLAS   FOG       70  70 100 CALM      29.97F VSB 1/4
$$

WIZ011>013-019>022-031-037>040-048>050-231000-
NORTHEAST WISCONSIN

CITY           SKY/WX    TMP DP  RH WIND       PRES   REMARKS
ANTIGO         CLOUDY    68  68  99 SE3       30.04S FOG
STURGEON BAY   PTCLDY    66  64  94 CALM      30.02R
GREEN BAY      LGT RAIN  69  67  93 NE3       30.01R
MANITOWOC      CLOUDY    66  66 100 CALM      30.01S FOG
APPLETON       CLOUDY    70  68  94 E3        30.01S FOG
CLINTONVILLE   CLOUDY    70  68  94 CALM      30.01R FOG
OSHKOSH        CLOUDY    71  70  96 E6        29.99S FOG
$$

WIZ032>034-041-042-053>061-231000-
SOUTHWEST WISCONSIN

CITY           SKY/WX    TMP DP  RH WIND       PRES   REMARKS
LA CROSSE      CLOUDY    73  70  90 N3        29.95F
SPARTA         FOG       69  68  97 CALM      29.98S VSB 1/4
VIROQUA        CLOUDY    70  70 100 CALM      29.98F
BOSCOBEL       FOG       74  72  93 CALM      29.95S VSB 1/4
PRAIRIE DU CHI CLOUDY    76  73  90 CALM      29.94F
PLATTEVILLE    MOCLDY    74  73  96 CALM      29.98S VSB 3/4
$$

WIZ056-057-062-063-064-067-068-231000-
SOUTH CENTRAL WISCONSIN

CITY           SKY/WX    TMP DP  RH WIND       PRES   REMARKS
BARABOO/DELLS  CLOUDY    73  71  94 CALM      29.97S FOG
LONE ROCK      FOG       74  70  87 CALM      29.96S VSB 3/4
WATERTOWN      FOG       71  71 100 SE3       29.98F VSB 1/4
MADISON        CLOUDY    75  73  93 S6        29.97S FOG
MIDDLETON      CLOUDY    76  76 100 SE3       29.98S
MONROE         FOG       72  72 100 E5        29.98S VSB 1/4
JANESVILLE     PTCLDY    73  72  94 E3        29.97F FOG
$$

WIZ051-052-058>065-066-070>072-231000-
SOUTHEAST WISCONSIN

CITY           SKY/WX    TMP DP  RH WIND       PRES   REMARKS
MILWAUKEE      FOG       69  68  96 CALM      29.99F VSB 1/8
WAUKESHA       FOG       68  68 100 SE5       30.01S VSB 1/2
MILWAUKEE/TIMM FOG       68  66  94 CALM      30.01S VSB 1
RACINE         FOG       69  68  96 CALM      30.00F VSB 1/4
BURLINGTON     FOG       69  69  99 E3        29.99S VSB 1/4
KENOSHA        FOG       70  70 100 E3        29.99F VSB 1/4
FOND DU LAC    MOCLDY    71  69  93 E6        30.00R FOG
SHEBOYGAN      LGT RAIN  68  67  96 CALM      30.01R VSB 1/2
WEST BEND      FOG       66  64  94 E3        30.00S VSB 1/4
JUNEAU         HAZE      70  46  40 SE5       30.00S VSB 1/4
$$

LSZ147-162-231000-
LAKE SUPERIOR

STATION/POSITION TIME  TEMP    WIND        PRES    WAVE
                       AIR SEA DIR/SP/G            HT/PER
                 (UTC) (F)     (DEG/KT/KT) (MB)    (FT/S)
W MID LAKE BUOY  0750   58 58   50/ 10/ 12 1017.1F   1/ 4
DEVILS ISLAND    0800   60      60/  9/ 10 1017.5F
PORT WING        0800   61      60/  3/  3 1017.6F
SAXON HARBOR     0800   62        CALM     1017.3F
$$

LMZ867-665-643>646-231000-
LAKE MICHIGAN

STATION/POSITION TIME  TEMP    WIND        PRES    WAVE
                       AIR SEA DIR/SP/G            HT/PER
                 (UTC) (F)     (DEG/KT/KT) (MB)    (FT/S)
N MID LAKE BUOY  0750   68 65  170/  6/  8 1016.1R   0
NORTHPORT PIER   0800   66     180/  2/  3 1016.3S
SISTER BAY       0811   68        CALM       N/A
KEWAUNEE LAKESHO 0800   68      80/  4/  5 1015.1S
SHEBOYGAN LAKESH 0800   67 65   20/  3/  3 1015.9R
ATWATER BUOY     0800   69     130/  2/  2 1016.8R
MILWAUKEE LAKESH 0800   69      70/  1/  1   N/A
S MID LAKE BUOY  0850   70 69  100/  8/ 10 1015.0R   1
KENOSHA   LAKESH 0800   70      10/  3/  3 1015.6R
$$

TC  - TEMPERATURE IN CELSIUS
VSB - VISIBILITY IN STATUTE MILES
WCI - WIND CHILL INDEX
HX  - HEAT INDEX



USA.gov is the U.S. government's official web portal to all federal, state and local government web resources and services.